When you browse on this site, cookies collect data to enhance your experience and personalize the content and advertising you see.
Visit our Privacy Policy to learn more. By continuing to use the site, you agree to this use of cookies and data.
  • Em Portugal
  • Lista de países
  • Para 7 dias
  • Temperatura da água
  • Mapas de satélite
  • Mapa do tempo
  • Widgets de tempo
  • user-avatar
    Iniciar Sessão

    Previsão horária em Silkhet

    Hoje, 21 Julho, Domingo

    Tempo Temperatura Precipitação Vento Pressão Humidade
    00:00 +29°C° 0 mm 2 m/s 752 mmHg 90%
    01:00 +29°C° 1.2 mm 2 m/s 752 mmHg 90%
    02:00 +29°C° 1.2 mm 2 m/s 752 mmHg 91%
    03:00 +28°C° 1.2 mm 3 m/s 751 mmHg 91%
    04:00 +28°C° 0.5 mm 2 m/s 752 mmHg 91%
    05:00 +28°C° 0.5 mm 2 m/s 752 mmHg 92%
    06:00 +29°C° 0 mm 2 m/s 752 mmHg 92%
    07:00 +30°C° 1.4 mm 2 m/s 752 mmHg 86%
    08:00 +31°C° 1.4 mm 2 m/s 752 mmHg 81%
    09:00 +34°C° 1.4 mm 3 m/s 752 mmHg 75%
    10:00 +34°C° 1.1 mm 3 m/s 752 mmHg 72%
    11:00 +35°C° 1.1 mm 3 m/s 752 mmHg 69%
    12:00 +36°C° 0 mm 2 m/s 753 mmHg 65%
    13:00 +36°C° 1.2 mm 2 m/s 752 mmHg 65%
    14:00 +36°C° 1.2 mm 2 m/s 751 mmHg 65%
    15:00 +36°C° 1.2 mm 2 m/s 750 mmHg 65%
    16:00 +35°C° 1.4 mm 2 m/s 750 mmHg 70%
    17:00 +34°C° 1.4 mm 2 m/s 750 mmHg 75%
    18:00 +32°C° 0 mm 1 m/s 751 mmHg 79%
    19:00 +31°C° 0.8 mm 2 m/s 751 mmHg 81%
    20:00 +31°C° 0.8 mm 2 m/s 752 mmHg 84%
    21:00 +30°C° 0.8 mm 2 m/s 752 mmHg 86%
    22:00 +30°C° 1.2 mm 2 m/s 752 mmHg 87%
    23:00 +29°C° 1.2 mm 2 m/s 752 mmHg 89%

    Amanhã, 22 Julho, Segunda-feira

    Tempo Temperatura Precipitação Vento Pressão Humidade
    00:00 +29°C° 1.2 mm 2 m/s 752 mmHg 91%
    01:00 +29°C° 2 mm 2 m/s 752 mmHg 92%
    02:00 +28°C° 2 mm 2 m/s 752 mmHg 92%
    03:00 +28°C° 2 mm 2 m/s 751 mmHg 93%
    04:00 +28°C° 1.3 mm 2 m/s 751 mmHg 93%
    05:00 +28°C° 1.3 mm 2 m/s 752 mmHg 92%
    06:00 +28°C° 1.3 mm 2 m/s 752 mmHg 92%
    07:00 +29°C° 1.2 mm 2 m/s 752 mmHg 87%
    08:00 +31°C° 1.2 mm 2 m/s 752 mmHg 82%
    09:00 +32°C° 1.2 mm 2 m/s 753 mmHg 77%
    10:00 +33°C° 1.6 mm 3 m/s 752 mmHg 75%
    11:00 +34°C° 1.6 mm 3 m/s 752 mmHg 73%
    12:00 +35°C° 1.6 mm 3 m/s 752 mmHg 71%
    13:00 +35°C° 0.9 mm 3 m/s 751 mmHg 71%
    14:00 +35°C° 0.9 mm 3 m/s 751 mmHg 71%
    15:00 +35°C° 0.9 mm 4 m/s 750 mmHg 72%
    16:00 +34°C° 1.6 mm 3 m/s 750 mmHg 76%
    17:00 +31°C° 1.6 mm 3 m/s 750 mmHg 81%
    18:00 +30°C° 1.6 mm 3 m/s 750 mmHg 86%
    19:00 +30°C° 1.4 mm 3 m/s 751 mmHg 87%
    20:00 +29°C° 1.4 mm 3 m/s 752 mmHg 88%
    21:00 +29°C° 1.4 mm 3 m/s 752 mmHg 89%
    22:00 +29°C° 0.6 mm 3 m/s 752 mmHg 90%
    23:00 +28°C° 0.6 mm 3 m/s 752 mmHg 91%

    Depois de amanhã, 23 Julho, Terça-feira

    Tempo Temperatura Precipitação Vento Pressão Humidade
    00:00 +28°C° 0.6 mm 3 m/s 752 mmHg 91%
    01:00 +28°C° 0.8 mm 3 m/s 752 mmHg 92%
    02:00 +28°C° 0.8 mm 3 m/s 751 mmHg 92%
    03:00 +28°C° 0.8 mm 2 m/s 751 mmHg 92%
    04:00 +28°C° 0.9 mm 2 m/s 751 mmHg 92%
    05:00 +27°C° 0.9 mm 1 m/s 751 mmHg 93%
    06:00 +27°C° 0.9 mm 1 m/s 751 mmHg 93%
    07:00 +28°C° 1 mm 1 m/s 752 mmHg 90%
    08:00 +29°C° 1 mm 1 m/s 752 mmHg 87%
    09:00 +30°C° 1 mm 1 m/s 753 mmHg 84%
    10:00 +31°C° 0.9 mm 1 m/s 752 mmHg 80%
    11:00 +32°C° 0.9 mm 1 m/s 752 mmHg 75%
    12:00 +33°C° 0.9 mm 1 m/s 751 mmHg 71%
    13:00 +33°C° 1.4 mm 1 m/s 751 mmHg 72%
    14:00 +33°C° 1.4 mm 1 m/s 750 mmHg 72%
    15:00 +33°C° 1.4 mm 1 m/s 750 mmHg 72%
    16:00 +32°C° 2.3 mm 2 m/s 750 mmHg 77%
    17:00 +31°C° 2.3 mm 2 m/s 750 mmHg 82%
    18:00 +30°C° 2.3 mm 3 m/s 750 mmHg 87%
    19:00 +30°C° 1.5 mm 3 m/s 751 mmHg 88%
    20:00 +29°C° 1.5 mm 3 m/s 751 mmHg 88%
    21:00 +28°C° 1.5 mm 4 m/s 752 mmHg 89%
    22:00 +28°C° 0.5 mm 4 m/s 752 mmHg 90%
    23:00 +28°C° 0.5 mm 3 m/s 752 mmHg 91%

    24 Julho, Quarta-feira

    Tempo Temperatura Precipitação Vento Pressão Humidade
    00:00 +28°C° 0.5 mm 3 m/s 752 mmHg 92%
    01:00 +27°C° 0.4 mm 3 m/s 751 mmHg 93%
    02:00 +27°C° 0.4 mm 2 m/s 751 mmHg 93%
    03:00 +27°C° 0.4 mm 2 m/s 751 mmHg 93%
    04:00 +27°C° 0.3 mm 2 m/s 751 mmHg 93%
    05:00 +27°C° 0.3 mm 2 m/s 751 mmHg 93%
    06:00 +27°C° 0.3 mm 2 m/s 751 mmHg 93%
    07:00 +27°C° 0.1 mm 2 m/s 751 mmHg 93%
    08:00 +27°C° 0.1 mm 2 m/s 752 mmHg 92%
    09:00 +28°C° 0.1 mm 2 m/s 752 mmHg 91%
    10:00 +28°C° 0.2 mm 2 m/s 752 mmHg 89%
    11:00 +29°C° 0.2 mm 2 m/s 752 mmHg 86%
    12:00 +30°C° 0.2 mm 1 m/s 751 mmHg 83%
    13:00 +30°C° 0.4 mm 1 m/s 751 mmHg 81%
    14:00 +31°C° 0.4 mm 1 m/s 750 mmHg 78%
    15:00 +32°C° 0.4 mm 1 m/s 750 mmHg 76%
    16:00 +31°C° 0.7 mm 1 m/s 750 mmHg 79%
    17:00 +30°C° 0.7 mm 2 m/s 750 mmHg 83%
    18:00 +29°C° 0.7 mm 2 m/s 750 mmHg 86%
    19:00 +29°C° 0.6 mm 2 m/s 751 mmHg 88%
    20:00 +28°C° 0.6 mm 2 m/s 751 mmHg 90%
    21:00 +28°C° 0.6 mm 3 m/s 752 mmHg 92%
    22:00 +28°C° 0.7 mm 3 m/s 752 mmHg 93%
    23:00 +27°C° 0.7 mm 3 m/s 752 mmHg 94%

    25 Julho, Quinta-feira

    Tempo Temperatura Precipitação Vento Pressão Humidade
    00:00 +27°C° 0.7 mm 3 m/s 752 mmHg 95%
    01:00 +27°C° 1.1 mm 2 m/s 751 mmHg 96%
    02:00 +27°C° 1.1 mm 2 m/s 751 mmHg 96%
    03:00 +27°C° 1.1 mm 2 m/s 751 mmHg 97%
    04:00 +27°C° 0.8 mm 2 m/s 751 mmHg 97%
    05:00 +27°C° 0.8 mm 2 m/s 751 mmHg 96%
    06:00 +27°C° 0.8 mm 2 m/s 751 mmHg 96%
    07:00 +27°C° 0.4 mm 2 m/s 751 mmHg 95%
    08:00 +28°C° 0.4 mm 2 m/s 752 mmHg 94%
    09:00 +28°C° 0.4 mm 2 m/s 752 mmHg 93%
    10:00 +28°C° 1 mm 2 m/s 752 mmHg 91%
    11:00 +29°C° 1 mm 2 m/s 752 mmHg 90%
    12:00 +29°C° 1 mm 2 m/s 751 mmHg 89%
    13:00 +30°C° 1.8 mm 2 m/s 751 mmHg 87%
    14:00 +30°C° 1.8 mm 2 m/s 750 mmHg 86%
    15:00 +30°C° 1.8 mm 2 m/s 750 mmHg 84%
    16:00 +30°C° 1.7 mm 2 m/s 750 mmHg 87%
    17:00 +29°C° 1.7 mm 2 m/s 750 mmHg 89%
    18:00 +29°C° 1.7 mm 2 m/s 750 mmHg 92%
    19:00 +28°C° 0.3 mm 2 m/s 750 mmHg 93%
    20:00 +28°C° 0.3 mm 2 m/s 751 mmHg 94%
    21:00 +27°C° 0.3 mm 2 m/s 752 mmHg 95%
    22:00 +27°C° 0 mm 2 m/s 751 mmHg 95%
    23:00 +27°C° 0 mm 2 m/s 751 mmHg 95%

    26 Julho, Sexta-feira

    Tempo Temperatura Precipitação Vento Pressão Humidade
    00:00 +27°C° 0 mm 2 m/s 751 mmHg 95%
    01:00 +26°C° 0 mm 2 m/s 751 mmHg 95%
    02:00 +26°C° 0 mm 1 m/s 751 mmHg 95%
    03:00 +26°C° 0 mm 1 m/s 750 mmHg 95%
    04:00 +26°C° 0 mm 2 m/s 750 mmHg 95%
    05:00 +26°C° 0 mm 2 m/s 750 mmHg 94%
    06:00 +27°C° 0 mm 2 m/s 751 mmHg 94%
    07:00 +28°C° 0 mm 2 m/s 751 mmHg 91%
    08:00 +28°C° 0 mm 2 m/s 751 mmHg 87%
    09:00 +29°C° 0 mm 2 m/s 751 mmHg 84%
    10:00 +31°C° 0 mm 3 m/s 751 mmHg 78%
    11:00 +33°C° 0 mm 3 m/s 750 mmHg 71%
    12:00 +35°C° 0 mm 3 m/s 750 mmHg 65%
    13:00 +35°C° 0 mm 2 m/s 749 mmHg 63%
    14:00 +36°C° 0 mm 2 m/s 748 mmHg 62%
    15:00 +35°C° 0 mm 1 m/s 748 mmHg 60%
    16:00 +35°C° 1.5 mm 2 m/s 748 mmHg 67%
    17:00 +34°C° 1.5 mm 3 m/s 748 mmHg 74%
    18:00 +31°C° 1.5 mm 3 m/s 748 mmHg 81%
    19:00 +30°C° 0.3 mm 3 m/s 749 mmHg 84%
    20:00 +29°C° 0.3 mm 3 m/s 750 mmHg 87%
    21:00 +28°C° 0.3 mm 3 m/s 751 mmHg 91%
    22:00 +28°C° 0.6 mm 3 m/s 751 mmHg 92%
    23:00 +28°C° 0.6 mm 3 m/s 751 mmHg 93%
    Mostrar mais